MXY340 KMSY-KTPA

Flight info

Callsign MXY340
Flight time 1h 5m
Altitude 41000
Route DCT REDFN Y280 CHRGE RAYZZ3
Aircraft E190/M-SDE3GILORVW/S

Departure

Time 2026-04-30 20:28
Airport Louis Armstrong New Orleans International Airport (KMSY)

Arrival

Time 2026-04-30 21:34
Airport Tampa International Airport (KTPA)
Time Latitude Longitude Altitude Speed Heading
2026-04-30 20:03 29.99554 -90.25859 5 ft 0 kts
2026-04-30 20:18 29.99553 -90.25859 5 ft 1 kts
2026-04-30 20:18 29.99530 -90.25863 6 ft 4 kts
2026-04-30 20:19 29.99503 -90.25867 5 ft 4 kts
2026-04-30 20:19 29.99489 -90.25869 4 ft 2 kts
2026-04-30 20:19 29.99467 -90.25858 3 ft 4 kts 285°
2026-04-30 20:19 29.99461 -90.25834 3 ft 1 kts 284°
2026-04-30 20:22 29.99464 -90.25846 3 ft 3 kts 284°
2026-04-30 20:22 29.99468 -90.25873 3 ft 3 kts 274°
2026-04-30 20:22 29.99470 -90.25906 3 ft 5 kts 275°
2026-04-30 20:22 29.99479 -90.25943 3 ft 6 kts 283°
2026-04-30 20:23 29.99490 -90.25989 4 ft 6 kts 289°
2026-04-30 20:23 29.99507 -90.26040 4 ft 6 kts 283°
2026-04-30 20:23 29.99514 -90.26090 4 ft 8 kts 283°
2026-04-30 20:23 29.99505 -90.26162 6 ft 10 kts 229°
2026-04-30 20:24 29.99445 -90.26214 7 ft 12 kts 231°
2026-04-30 20:24 29.99442 -90.26314 6 ft 15 kts 285°
2026-04-30 20:24 29.99470 -90.26432 8 ft 15 kts 287°
2026-04-30 20:24 29.99500 -90.26551 11 ft 16 kts 285°
2026-04-30 20:25 29.99567 -90.26829 11 ft 19 kts 287°
2026-04-30 20:25 29.99602 -90.26975 10 ft 19 kts 282°
2026-04-30 20:26 29.99686 -90.27316 4 ft 25 kts 287°
2026-04-30 20:26 29.99714 -90.27663 2 ft 19 kts 216°
2026-04-30 20:26 29.99593 -90.27709 -1 ft 16 kts 195°
2026-04-30 20:27 29.99485 -90.27440 1 ft 61 kts 108°
2026-04-30 20:27 29.98987 -90.25354 403 ft 187 kts 105°
2026-04-30 20:28 29.98237 -90.21944 1686 ft 249 kts 104°
2026-04-30 20:28 29.97397 -90.18126 3697 ft 246 kts 105°
2026-04-30 20:29 29.96610 -90.14246 5573 ft 258 kts 104°
2026-04-30 20:30 29.95293 -90.07685 8222 ft 290 kts 103°
2026-04-30 20:30 29.93163 -90.01015 10986 ft 304 kts 140°
2026-04-30 20:31 29.87492 -89.98268 13879 ft 302 kts 168°
2026-04-30 20:32 29.81303 -89.95807 16432 ft 325 kts 168°
2026-04-30 20:32 29.76936 -89.94051 18047 ft 340 kts 168°
2026-04-30 20:33 29.74687 -89.93128 18773 ft 345 kts 168°
2026-04-30 20:33 29.70154 -89.91267 20250 ft 352 kts 168°
2026-04-30 20:33 29.67838 -89.90323 20993 ft 355 kts 168°
2026-04-30 20:34 29.63947 -89.86640 22331 ft 389 kts 117°
2026-04-30 20:34 29.61299 -89.81261 23631 ft 389 kts 135°
2026-04-30 20:35 29.59534 -89.78891 24147 ft 393 kts 133°
2026-04-30 20:35 29.57847 -89.76450 24656 ft 397 kts 133°
2026-04-30 20:35 29.54465 -89.71391 25709 ft 403 kts 131°
2026-04-30 20:36 29.52781 -89.68802 26192 ft 406 kts 131°
2026-04-30 20:36 29.51091 -89.66186 26740 ft 409 kts 131°
2026-04-30 20:36 29.47682 -89.60904 27739 ft 414 kts 131°
2026-04-30 20:37 29.45962 -89.58238 28216 ft 417 kts 131°
2026-04-30 20:37 29.44227 -89.55553 28676 ft 420 kts 132°
2026-04-30 20:37 29.42508 -89.52895 29168 ft 421 kts 132°
2026-04-30 20:37 29.40769 -89.50204 29681 ft 421 kts 132°
2026-04-30 20:38 29.39014 -89.47496 30067 ft 424 kts 132°
2026-04-30 20:38 29.37254 -89.44781 30377 ft 427 kts 132°
2026-04-30 20:38 29.35469 -89.42033 30681 ft 431 kts 132°
2026-04-30 20:39 29.31874 -89.36497 31328 ft 437 kts 132°
2026-04-30 20:39 29.30057 -89.33701 31730 ft 437 kts 132°
2026-04-30 20:39 29.28231 -89.30895 31990 ft 442 kts 132°
2026-04-30 20:40 29.24566 -89.25268 32595 ft 447 kts 132°
2026-04-30 20:40 29.22710 -89.22421 33067 ft 445 kts 132°
2026-04-30 20:40 29.20851 -89.19572 33335 ft 449 kts 132°
2026-04-30 20:41 29.17093 -89.13821 33931 ft 454 kts 132°
2026-04-30 20:41 29.15195 -89.10923 34143 ft 457 kts 132°
2026-04-30 20:41 29.13289 -89.08010 34422 ft 457 kts 132°
2026-04-30 20:41 29.11375 -89.05089 34579 ft 462 kts 132°
2026-04-30 20:42 29.09469 -89.02184 34778 ft 464 kts 132°
2026-04-30 20:42 29.07535 -88.99235 35063 ft 464 kts 132°
2026-04-30 20:42 29.03633 -88.93298 35345 ft 470 kts 131°
2026-04-30 20:43 29.01668 -88.90310 35591 ft 471 kts 131°
2026-04-30 20:43 28.99700 -88.87318 35838 ft 471 kts 131°
2026-04-30 20:43 28.97721 -88.84317 35903 ft 475 kts 131°
2026-04-30 20:44 28.93738 -88.78278 36333 ft 476 kts 131°
2026-04-30 20:44 28.91775 -88.75304 36504 ft 478 kts 131°
2026-04-30 20:44 28.87983 -88.68981 36598 ft 492 kts 116°
2026-04-30 20:45 28.85767 -88.61500 36704 ft 502 kts 107°
2026-04-30 20:45 28.84778 -88.57684 36957 ft 501 kts 108°
2026-04-30 20:45 28.83765 -88.53887 37263 ft 499 kts 108°
2026-04-30 20:46 28.81010 -88.43850 37966 ft 497 kts 109°
2026-04-30 20:46 28.79628 -88.38873 38252 ft 497 kts 109°
2026-04-30 20:47 28.77534 -88.31360 38680 ft 497 kts 109°
2026-04-30 20:47 28.76840 -88.28876 38808 ft 497 kts 109°
2026-04-30 20:48 28.74742 -88.21381 39196 ft 496 kts 109°
2026-04-30 20:48 28.73693 -88.17641 39384 ft 495 kts 109°
2026-04-30 20:48 28.72641 -88.13900 39561 ft 495 kts 109°
2026-04-30 20:48 28.71251 -88.08959 39803 ft 495 kts 109°
2026-04-30 20:49 28.70540 -88.06439 39935 ft 494 kts 109°
2026-04-30 20:49 28.69492 -88.02718 40114 ft 493 kts 109°
2026-04-30 20:49 28.68442 -87.98995 40283 ft 493 kts 109°
2026-04-30 20:50 28.66357 -87.91611 40585 ft 493 kts 109°
2026-04-30 20:50 28.65307 -87.87901 40726 ft 493 kts 109°
2026-04-30 20:50 28.64259 -87.84202 40976 ft 487 kts 108°
2026-04-30 20:50 28.63221 -87.80543 41113 ft 488 kts 108°
2026-04-30 20:51 28.62173 -87.76852 41072 ft 492 kts 108°
2026-04-30 20:51 28.60055 -87.69403 40946 ft 501 kts 108°
2026-04-30 20:51 28.58977 -87.65618 40931 ft 505 kts 108°
2026-04-30 20:52 28.56797 -87.57979 40929 ft 511 kts 108°
2026-04-30 20:53 28.53481 -87.46395 40930 ft 514 kts 108°
2026-04-30 20:53 28.51277 -87.38717 40930 ft 514 kts 108°
2026-04-30 20:54 28.47953 -87.27176 40929 ft 510 kts 108°
2026-04-30 20:55 28.44645 -87.15727 40937 ft 506 kts 108°
2026-04-30 20:55 28.42440 -87.08120 40945 ft 509 kts 108°
2026-04-30 20:56 28.39106 -86.96649 40936 ft 514 kts 108°
2026-04-30 20:57 28.35738 -86.85098 40935 ft 512 kts 108°
2026-04-30 20:57 28.33498 -86.77435 40927 ft 510 kts 108°
2026-04-30 20:58 28.30171 -86.66084 40942 ft 506 kts 108°
2026-04-30 20:58 28.27957 -86.58495 40946 ft 509 kts 108°
2026-04-30 20:59 28.24596 -86.47009 40937 ft 512 kts 108°
2026-04-30 21:00 28.20112 -86.31744 40929 ft 510 kts 108°
2026-04-30 21:01 28.16750 -86.20348 40937 ft 507 kts 108°
2026-04-30 21:02 28.13400 -86.09032 40940 ft 503 kts 108°
2026-04-30 21:02 28.11181 -86.01556 40948 ft 506 kts 108°
2026-04-30 21:03 28.08920 -85.93959 40944 ft 511 kts 108°
2026-04-30 21:03 28.06647 -85.86334 40938 ft 511 kts 108°
2026-04-30 21:04 28.04386 -85.78771 40937 ft 510 kts 108°
2026-04-30 21:04 28.00983 -85.67410 40929 ft 506 kts 108°
2026-04-30 21:05 27.98723 -85.59892 40937 ft 503 kts 108°
2026-04-30 21:05 27.96470 -85.52415 40938 ft 501 kts 108°
2026-04-30 21:06 27.94220 -85.44957 40958 ft 507 kts 108°
2026-04-30 21:06 27.91935 -85.37403 40933 ft 507 kts 108°
2026-04-30 21:07 27.89647 -85.29856 40943 ft 508 kts 108°
2026-04-30 21:07 27.87688 -85.22233 40949 ft 503 kts 99°
2026-04-30 21:08 27.86466 -85.14524 40929 ft 501 kts 98°
2026-04-30 21:08 27.85210 -85.06791 40339 ft 496 kts 99°
2026-04-30 21:09 27.84574 -85.02994 39873 ft 491 kts 98°
2026-04-30 21:09 27.83934 -84.99188 39186 ft 492 kts 98°
2026-04-30 21:09 27.83296 -84.95402 38523 ft 491 kts 98°
2026-04-30 21:09 27.82657 -84.91622 37875 ft 488 kts 98°
2026-04-30 21:10 27.82023 -84.87871 37202 ft 486 kts 98°
2026-04-30 21:10 27.81407 -84.84182 36592 ft 483 kts 96°
2026-04-30 21:10 27.81253 -84.80423 35934 ft 478 kts 83°
2026-04-30 21:10 27.81477 -84.76682 35319 ft 478 kts 83°
2026-04-30 21:11 27.81693 -84.72922 34672 ft 480 kts 83°
2026-04-30 21:11 27.81896 -84.69152 34027 ft 482 kts 84°
2026-04-30 21:11 27.82092 -84.65375 33369 ft 481 kts 84°
2026-04-30 21:11 27.82282 -84.61607 32742 ft 481 kts 84°
2026-04-30 21:12 27.82469 -84.57831 32111 ft 483 kts 84°
2026-04-30 21:12 27.82652 -84.54089 31465 ft 484 kts 85°
2026-04-30 21:12 27.82833 -84.50293 30833 ft 483 kts 85°
2026-04-30 21:12 27.83012 -84.46521 30192 ft 480 kts 85°
2026-04-30 21:13 27.83176 -84.42768 29527 ft 475 kts 85°
2026-04-30 21:13 27.83343 -84.39070 28933 ft 468 kts 85°
2026-04-30 21:13 27.83508 -84.35412 28317 ft 464 kts 85°
2026-04-30 21:13 27.83672 -84.31790 27697 ft 460 kts 85°
2026-04-30 21:14 27.83833 -84.28200 27096 ft 456 kts 85°
2026-04-30 21:14 27.83992 -84.24638 26494 ft 452 kts 85°
2026-04-30 21:14 27.84148 -84.21152 25916 ft 449 kts 85°
2026-04-30 21:14 27.84309 -84.17550 25316 ft 471 kts 85°
2026-04-30 21:15 27.84474 -84.13822 24658 ft 478 kts 86°
2026-04-30 21:15 27.84638 -84.10074 24034 ft 477 kts 86°
2026-04-30 21:15 27.84800 -84.06343 23380 ft 475 kts 86°
2026-04-30 21:15 27.84959 -84.02639 22781 ft 468 kts 86°
2026-04-30 21:16 27.85116 -83.98979 22149 ft 464 kts 86°
2026-04-30 21:16 27.85270 -83.95355 21544 ft 460 kts 85°
2026-04-30 21:16 27.85420 -83.91815 20965 ft 455 kts 85°
2026-04-30 21:16 27.85621 -83.88267 20419 ft 450 kts 83°
2026-04-30 21:17 27.85931 -83.84773 19890 ft 445 kts 82°
2026-04-30 21:17 27.86243 -83.81305 19375 ft 442 kts 82°
2026-04-30 21:17 27.86539 -83.77865 18865 ft 438 kts 82°
2026-04-30 21:17 27.86822 -83.74449 18389 ft 434 kts 82°
2026-04-30 21:18 27.87099 -83.71064 17873 ft 431 kts 82°
2026-04-30 21:18 27.87373 -83.67711 17405 ft 427 kts 83°
2026-04-30 21:18 27.87641 -83.64382 16892 ft 423 kts 83°
2026-04-30 21:18 27.87903 -83.61129 16409 ft 419 kts 83°
2026-04-30 21:19 27.88164 -83.57864 15927 ft 416 kts 83°
2026-04-30 21:19 27.88423 -83.54627 15448 ft 412 kts 83°
2026-04-30 21:19 27.88679 -83.51419 14973 ft 407 kts 83°
2026-04-30 21:19 27.88930 -83.48249 14505 ft 403 kts 83°
2026-04-30 21:20 27.89179 -83.45107 14038 ft 400 kts 83°
2026-04-30 21:20 27.89425 -83.41988 13555 ft 397 kts 83°
2026-04-30 21:20 27.89668 -83.38896 13115 ft 393 kts 83°
2026-04-30 21:20 27.89908 -83.35823 12652 ft 392 kts 83°
2026-04-30 21:21 27.90148 -83.32763 12207 ft 390 kts 83°
2026-04-30 21:21 27.90382 -83.29761 11765 ft 388 kts 83°
2026-04-30 21:21 27.90852 -83.23700 10860 ft 386 kts 84°
2026-04-30 21:22 27.91085 -83.20684 10418 ft 384 kts 83°
2026-04-30 21:22 27.93219 -83.12223 9967 ft 374 kts 57°
2026-04-30 21:23 27.94470 -83.09645 9986 ft 375 kts 59°
2026-04-30 21:23 27.95683 -83.07031 9993 ft 376 kts 59°
2026-04-30 21:23 27.98060 -83.01809 9992 ft 376 kts 60°
2026-04-30 21:24 27.99243 -82.99169 9987 ft 376 kts 60°
2026-04-30 21:24 28.00419 -82.96526 9986 ft 374 kts 60°
2026-04-30 21:24 28.01550 -82.93974 9787 ft 356 kts 60°
2026-04-30 21:24 28.02622 -82.91433 8952 ft 358 kts 62°
2026-04-30 21:25 28.04650 -82.86490 8318 ft 330 kts 62°
2026-04-30 21:25 28.05593 -82.84199 8210 ft 313 kts 62°
2026-04-30 21:25 28.06491 -82.82006 8115 ft 302 kts 63°
2026-04-30 21:26 28.08261 -82.77720 7894 ft 302 kts 62°
2026-04-30 21:26 28.09160 -82.75573 7790 ft 301 kts 62°
2026-04-30 21:27 28.10943 -82.71277 7554 ft 301 kts 62°
2026-04-30 21:27 28.11831 -82.69129 7452 ft 302 kts 62°
2026-04-30 21:27 28.12767 -82.67053 7355 ft 298 kts 55°
2026-04-30 21:28 28.15330 -82.63785 6828 ft 256 kts 44°
2026-04-30 21:28 28.16502 -82.62346 6581 ft 241 kts 43°
2026-04-30 21:28 28.18729 -82.59605 6145 ft 241 kts 50°
2026-04-30 21:29 28.19453 -82.57892 5872 ft 245 kts 77°
2026-04-30 21:29 28.17171 -82.53407 5137 ft 225 kts 151°
2026-04-30 21:30 28.14353 -82.53486 4439 ft 207 kts 199°
2026-04-30 21:31 28.10004 -82.53762 2996 ft 195 kts 188°
2026-04-30 21:31 28.07382 -82.53861 1777 ft 186 kts 186°
2026-04-30 21:32 28.04956 -82.53928 1111 ft 159 kts 186°
2026-04-30 21:32 28.03905 -82.53986 920 ft 144 kts 190°
2026-04-30 21:32 28.02921 -82.54014 725 ft 140 kts 184°
2026-04-30 21:32 28.01952 -82.54023 564 ft 137 kts 188°
2026-04-30 21:33 28.01026 -82.54081 376 ft 133 kts 185°
2026-04-30 21:33 27.99204 -82.54137 52 ft 127 kts 188°
2026-04-30 21:33 27.98437 -82.54165 50 ft 90 kts 183°
2026-04-30 21:34 27.97972 -82.54179 46 ft 46 kts 184°
2026-04-30 21:34 27.97590 -82.54002 46 ft 24 kts 96°
2026-04-30 21:34 27.97599 -82.53868 40 ft 9 kts 49°
2026-04-30 21:35 27.97653 -82.53828 42 ft 2 kts 34°